Regional Weather Roundup
Issued by NWS Wakefield, VA

Home | Current Version | Previous Version | Text Only | Print | Product List | Glossary On
Versions: 1 2 3 4 5 6 7 8 9 10 11 12 13 14 15 16 17 18 19 20 21 22 23 24 25 26 27
000
ASUS41 KAKQ 300915
RWRAKQ

REGIONAL WEATHER ROUNDUP
NATIONAL WEATHER SERVICE WAKEFIELD VA
500 AM EDT SAT APR 30 2016

Note: "fair" indicates few or no clouds below 12,000 feet with no
significant weather and/or obstructions to visibility. * = Denotes
station may not report precipitation (e.g., rain,snow,etc.),
thunder or fog.

VAZ042-051-052>054-056-301000-
NORTHERN VIRGINIA

CITY           SKY/WX    TMP DP  RH WIND       PRES   REMARKS
WASH NATIONAL  CLOUDY    52  49  89 NE9       30.14R
DULLES         CLOUDY    52  49  89 CALM      30.14R
FORT BELVOIR   CLOUDY    52  49  92 CALM      30.14R
QUANTICO       CLOUDY    54  49  83 E6        30.14S
FREDERICKSBRG* CLOUDY    53  53 100 CALM      30.13R
STAFFORD*      CLOUDY    52  49  90 NE5       30.17R
WARRENTON      CLOUDY    53  48  82 CALM      30.13R HAZE
CULPEPER*      CLOUDY    53  52  97 CALM      30.14R FOG
MANASSAS*      CLOUDY    54  52  94 NE3       30.14R
LEESBURG*      CLOUDY    52  52 100 CALM      30.14S FOG
WINCHESTER     CLOUDY    52  50  93 CALM      30.13R FOG
FRONT ROYAL*   CLOUDY    50  50 100 CALM      30.11S
LURAY*         FOG       50  50 100 N6        30.11S VSB 1
$$

VAZ048-049-060>072-079>083-301000-
CENTRAL AND SOUTH CENTRAL VIRGINIA

CITY           SKY/WX    TMP DP  RH WIND       PRES   REMARKS
RICHMOND       CLOUDY    53  51  93 N6        30.10S
CHESTERFIELD*  CLOUDY    54  41  62 NE3       30.12S
PETERSBURG*    CLOUDY    55  55 100 NE6       30.11S
HANOVER        CLOUDY    53  49  86 VRB3      30.12F
TAPPAHANNOCK*  FAIR      52  51  97 N3        30.12S
QUINTON*       CLOUDY    53  52  97 E5        30.10S
CHARLOTTSVILLE CLOUDY    54  51  90 NE5       30.11R
GORDONSVILLE*  CLOUDY    53  53 100 NE3       30.11S FOG
ORANGE*        CLOUDY    52  52 100 CALM      30.13S FOG
LOUISA*        CLOUDY    55  54  94 CALM      30.11R FOG
BUMPASS*       CLOUDY    51  51  98 CALM      30.11F
FARMVILLE*     CLOUDY    55  55 100 N5        30.09R FOG
CREWE*         CLOUDY    54  54 100 E3        30.10R
FORT PICKETT*  NOT AVBL
CHASE CITY*    CLOUDY    56  54  95 CALM      30.09S
CLARKSVILLE*   CLOUDY    57  55  94 E6        30.08S
SOUTH HILL*    CLOUDY    55  55  99 CALM      30.14S
LAWRENCEVILLE* CLOUDY    54  54 100 E3        30.09F
EMPORIA*       LGT SNOW  54  52  94 CALM      30.12R
$$

VAZ088>098-301000-
SOUTHEAST VIRGINIA

CITY           SKY/WX    TMP DP  RH WIND       PRES   REMARKS
NORFOLK        CLOUDY    56  51  84 NE8       30.08R
VIRGINIA BEACH CLOUDY    57  51  80 NE8       30.08R
NORFOLK NAVAL  CLOUDY    56  52  86 N6        30.10R
WEST POINT*    CLOUDY    53  51  94 CALM      30.12R
SALUDA*        CLOUDY    53  51  94 N7        30.10S
NEWPORT NEWS   CLOUDY    54  52  93 N3        30.10R
LANGLEY AFB    CLOUDY    55  52  90 NE8       30.09R
FORT EUSTIS    CLOUDY    54  54  98 N3        30.09R
WILLIAMSBURG*  MOCLDY    54  54 100 CALM      30.11R
HR EXEC AP*    CLOUDY    55  52  88 CALM      30.11R
FRANKLIN*      CLOUDY    55  52  92 CALM      30.11R
US460-WAKEFLD  CLOUDY    55  51  86 CALM      30.10R
$$

VAZ020-022-025-037-045-301000-
WEST CENTRAL AND SOUTHWEST VIRGINIA

CITY           SKY/WX    TMP DP  RH WIND       PRES   REMARKS
STAUNTON*      CLOUDY    55  54  97 NE3       30.12R FOG
WAYNESBORO*    CLOUDY    51  50  96 MISG      30.10S
HOT SPRINGS VA FOG       51  51 100 E3        30.09R VSB<1/4
LYNCHBURG      CLOUDY    53  53 100 NE5       30.10S
DANVILLE       CLOUDY    57 N/A N/A NE8       30.08S FOG
SOUTH BOSTON*  CLOUDY    56  55  95 E5        30.09S
MARTINSVILLE   CLOUDY    55  54  99 NE5       30.11R FOG
ROANOKE        CLOUDY    56  54  93 SE10      30.11R
BLACKSBURG     CLOUDY    56  55  97 E3        30.12S
DUBLIN*        MOCLDY    57  56  99 E3        30.09F
MARION*        FAIR      55  49  79 CALM      30.09S
HILLSVILLE*    FAIR      57  49  76 NE5       30.06S
RICHLANDS*     FAIR      57  32  38 NE9       30.05F
WISE*          MOCLDY    55  45  67 CALM      30.05F
ABINGDON*      MOCLDY    61  50  66 CALM      30.03R
$$

MDZ021>025-VAZ099-100-301000-
SOUTHERN MARYLAND AND THE DELMARVA PENINSULA

CITY           SKY/WX    TMP DP  RH WIND       PRES   REMARKS
PATUXENT RIVER CLOUDY    51  48  89 N8        30.12S
BAY BRIDGE APT NOT AVBL
LEONARDTOWN    CLOUDY    50  46  87 CALM      30.14R
DOVER          CLOUDY    47  47 100 N8        30.14R
GEORGETOWN     CLOUDY    48  47  96 N9        30.14R FOG
EASTON         CLOUDY   N/A N/A N/A E8        30.17S
CAMBRIDGE      CLOUDY    46  45  93 NE3       30.13R
SALISBURY      CLOUDY    49  48  97 NE8       30.11S FOG
OCEAN CITY     CLOUDY    50  48  93 NE7G17    30.11S
WALLOPS ISLAND CLOUDY    50  49  96 N8        30.11S
ACCOMACK*      CLOUDY    50  36  57 N3        30.09S
$$

NCZ012>017-030>032-301000-
NORTH CENTRAL AND EASTERN NORTH CAROLINA

CITY           SKY/WX    TMP DP  RH WIND       PRES   REMARKS
ROANOKE RAPIDS CLOUDY    55  54  94 NE3       30.10R
RALEIGH        CLOUDY    60  57  89 E5        30.07S
ELIZABETH CITY CLOUDY    55  53  93 N10       30.09R
AHOSKIE*       CLOUDY    55  53  91 CALM      30.10R
EDENTON*       CLOUDY    56  56  97 N5        30.10R
CURRITUCK*     CLOUDY    55  55  97 NE9       30.09S
KILL DEVIL HLS CLOUDY    54  54  99 N9        30.05F FOG
MANTEO         NOT AVBL
CAPE HATTERAS  CLOUDY    58  55  90 N9G23     30.05R
TARBORO*       CLOUDY    57  55  95 NE5       30.10S
GOLDSBORO      CLOUDY    61  61 100 E10       30.04S
WASHINGTON     CLOUDY    56  55  95 N8        30.08S
GREENVILLE     CLOUDY    59  55  88 NE6       30.09S
NEW BERN       CLOUDY    60  57  89 NE8       30.07R
WILMINGTON     CLOUDY    61  60  97 NE6       30.03R
$$

VAZ048-301000-
ELSEWHERE

CITY           SKY/WX    TMP DP  RH WIND       PRES   REMARKS
HARRISBURG PA  CLOUDY    46  43  89 CALM      30.16R
BALTIMORE      CLOUDY    50  46  86 N5        30.15R
ANNAPOLIS      CLOUDY    50  47  89 MISG      30.14R
ANDREWS AFB    CLOUDY    50  48  95 NE6       30.13R
PHILADELPHIA   CLOUDY    48  40  73 NE7       30.16S
HENDERSON NC   CLOUDY    57  57 100 NE7       30.08R
GREENSBORO     CLOUDY    61  58  90 E12       30.05R
ROCKY MOUNT    CLOUDY    58  56  93 NE7       30.07F
$$

VAZ100-301000-
MARINE

STATION/POSITION TIME  TEMP    WIND        PRES    WAVE   SWELL
                       AIR SEA DIR/SP/G            HT/PER HT/PER
                 (UTC) (F)     (DEG/KT/KT) (MB)    (FT/S) (FT/S)
BRANDYWINE LGT   0800   48      60/ 13/ 17 1020.1R
CAPE MAY NJ      0800   48 57   60/  5/  7 1019.8R
LEWES DE         0800   49 54   60/ 12/ 14 1019.9S
15NM E FENWICK I 0850   49 51              1019.1F   7/10
OCEAN-CITY-INLET 0800   50 53   40/  7/ 12 1018.8R
WACHAPREAGUE VA  0800   51 58   10/  6/ 11 1018.7R
THOMAS POINT MD  0900   50 57   70/  6/  7 1022.2R
GOOSES REEF MD   0900   52 56   50/  8/ 10 1021.2R   1/ 2
COVE POINT MD    0800   50      80/  9/ 13 1020.2R
SOLOMONS ISLAND  0800   52 60   30/  4/  7   N/A
BISHOPS HEAD MD  0800   51 57   40/ 10/ 12 1018.7F
PINEY POINT MD   0800           40/  6/  8   N/A
POTOMAC MD       0900   52 58   40/ 10/ 12 1019.0R   1/ 3
CAMBRIDGE MD     0800   50 61   30/  8/ 10 1019.4R
LEWISETTA VA     0800   53 59   50/  6/  9 1019.4R
RAPPAHANNOCK LGT 0800           30/ 11/ 14 1019.5R
STINGRAY PT      0900   54 60   40/ 14/ 16 1019.5S   2/ 3
YORK RVR RNG VA  0800   55      20/ 12/ 15 1018.0F
YORKTOWN VA      0800   54 62   10/  8/ 12 1018.4F
JAMESTOWN VA     0900   54 66   10/  4/  6   N/A     0
DOMINION TERM VA 0800   55      20/  5/  9 1018.7R
KIPTOPEKE VA     0800      59   30/  5/  8   N/A
CHES BAY BRIDGE  0800   55 58   10/ 13/ 14 1017.9F
CAPE HENRY VA    0800   54      20/ 12/ 14   N/A
CHESAPEAKE LGHT  0800   52      30/ 21/ 23 1018.4F
WILLOUBY STN VA  0800   55      10/ 12/ 13 1019.3F
CAPE HENRY BUOY  0812      55                N/A     5/ 8   2/11
CAPE CHARLES BUO 0826      56                N/A     5/ 8   3/ 8
OFFSHORE WE BUOY 0821      53                N/A     5/ 8   3/ 8
64NM E OF VA BCH 0850   52 53   20/ 16/ 19 1017.1R   5/ 9   3/ 9
DUCK PIER NC     0800   54 66   10/ 14/ 16 1017.9R
44100 DUCK FRF   0824      56                N/A     5/11   2/11
44056 DUCK FRF   0811      58                N/A     4/ 9   2/11
OREGON INLET NC  0800   56 63  350/  9/ 13 1017.8R
HATTERAS NC      0800   60 70   10/ 19/ 24 1016.5F
DIAMOND SHLS NC  0850   60 74   20/ 17/ 21 1017.2R   4/ 9   2/ 9
CAPE LOOKOUT NC  0900   62      50/ 14/ 15C1F1C2F2C3F3C4F4C5F5C6F6C7F7C8M1C9!



USA.gov is the U.S. government's official web portal to all federal, state and local government web resources and services.